| time (UTC) | temp F | wind direction | speed knots | gust knots | rain 1hr in | rain 24hr in | rain mn in | humidity % | barometer mb |
| 20260509135411 | 54 | 23 | 1.7 | 1.7 | 0.00 | 0.00 | 0.00 | 68 | 1005.8 |
| 20260509133904 | 53 | 0 | 0.9 | 1.7 | 0.00 | 0.00 | 0.00 | 68 | 1006.0 |
| 20260509133403 | 53 | 293 | 0.0 | 1.7 | 0.00 | 0.00 | 0.00 | 65 | 1005.8 |
| 20260509132901 | 53 | 270 | 0.9 | 1.7 | 0.00 | 0.00 | 0.00 | 68 | 1005.8 |
| 20260509132401 | 52 | 0 | 0.0 | 1.7 | 0.00 | 0.00 | 0.00 | 78 | 1005.7 |
| 20260509131901 | 51 | 90 | 0.9 | 1.7 | 0.00 | 0.00 | 0.00 | 82 | 1005.8 |
| 20260509131403 | 50 | 45 | 0.0 | 1.7 | 0.00 | 0.00 | 0.00 | 82 | 1006.0 |
| 20260509130904 | 50 | 23 | 0.0 | 1.7 | 0.00 | 0.00 | 0.00 | 86 | 1005.8 |
| 20260509130401 | 50 | 45 | 0.0 | 1.7 | 0.00 | 0.00 | 0.00 | 87 | 1005.8 |
| 20260509125401 | 50 | 338 | 1.7 | 3.5 | 0.00 | 0.00 | 0.00 | 88 | 1005.9 |
| 20260509124901 | 50 | 338 | 1.7 | 3.5 | 0.00 | 0.00 | 0.00 | 87 | 1005.6 |
| 20260509124402 | 50 | 338 | 1.7 | 1.7 | 0.00 | 0.00 | 0.00 | 85 | 1005.6 |
| 20260509123901 | 49 | 315 | 0.9 | 1.7 | 0.00 | 0.00 | 0.00 | 80 | 1005.3 |
| 20260509122901 | 48 | 225 | 0.9 | 1.7 | 0.00 | 0.00 | 0.00 | 84 | 1005.1 |
| 20260509122401 | 48 | 248 | 1.7 | 1.7 | 0.00 | 0.00 | 0.00 | 84 | 1005.0 |
| 20260509121901 | 49 | 338 | 0.9 | 1.7 | 0.00 | 0.00 | 0.00 | 86 | 1005.0 |
| 20260509121402 | 48 | 0 | 0.0 | 1.7 | 0.00 | 0.00 | 0.00 | 86 | 1004.7 |
| 20260509120902 | 48 | 338 | 0.9 | 1.7 | 0.00 | 0.00 | 0.00 | 85 | 1004.9 |
| 20260509120404 | 48 | 293 | 0.9 | 1.7 | 0.00 | 0.00 | 0.00 | 84 | 1004.6 |
| 20260509115901 | 48 | 293 | 0.0 | 3.5 | 0.00 | 0.00 | 0.00 | 85 | 1004.4 |
| 20260509115402 | 48 | 270 | 0.9 | 3.5 | 0.00 | 0.00 | 0.00 | 85 | 1004.3 |
| 20260509114901 | 48 | 270 | 1.7 | 3.5 | 0.00 | 0.00 | 0.00 | 86 | 1004.0 |
| 20260509114403 | 48 | 248 | 0.9 | 1.7 | 0.00 | 0.00 | 0.00 | 86 | 1003.8 |
| 20260509113903 | 48 | 248 | 0.0 | 0.0 | 0.00 | 0.00 | 0.00 | 86 | 1004.2 |
| 20260509112901 | 47 | 270 | 0.0 | 1.7 | 0.00 | 0.00 | 0.00 | 85 | 1004.0 |
| 20260509112412 | 47 | 270 | 0.0 | 1.7 | 0.00 | 0.00 | 0.00 | 87 | 1004.2 |
| 20260509111402 | 46 | 248 | 0.9 | 1.7 | 0.00 | 0.00 | 0.00 | 88 | 1003.7 |
| 20260509110901 | 46 | 248 | 0.0 | 1.7 | 0.00 | 0.00 | 0.00 | 89 | 1003.5 |
| 20260509105401 | 45 | 248 | 0.9 | 1.7 | 0.00 | 0.00 | 0.00 | 92 | 1003.6 |
| 20260509104902 | 46 | 338 | 0.0 | 0.0 | 0.00 | 0.00 | 0.00 | 93 | 1003.5 |
| 20260509104404 | 46 | 0 | 0.0 | 0.0 | 0.00 | 0.00 | 0.00 | 93 | 1003.5 |
| 20260509103901 | 46 | 0 | 0.0 | 0.0 | 0.00 | 0.00 | 0.00 | 93 | 1003.4 |
| 20260509103401 | 46 | 0 | 0.0 | 0.0 | 0.00 | 0.00 | 0.00 | 93 | 1003.3 |
| 20260509102401 | 46 | 0 | 0.0 | 0.0 | 0.00 | 0.00 | 0.00 | 92 | 1003.1 |
| 20260509101902 | 46 | 0 | 0.0 | 0.0 | 0.00 | 0.00 | 0.00 | 92 | 1003.0 |
| 20260509101403 | 46 | 0 | 0.0 | 0.0 | 0.00 | 0.00 | 0.00 | 92 | 1002.9 |
| 20260509100902 | 46 | 0 | 0.0 | 0.0 | 0.00 | 0.00 | 0.00 | 92 | 1002.9 |
| 20260509100402 | 46 | 0 | 0.0 | 0.0 | 0.00 | 0.00 | 0.00 | 92 | 1002.6 |
| 20260509095403 | 45 | 0 | 0.0 | 0.0 | 0.00 | 0.00 | 0.00 | 92 | 1002.8 |
| 20260509094901 | 46 | 0 | 0.0 | 0.0 | 0.00 | 0.00 | 0.00 | 91 | 1002.6 |
| 20260509094401 | 46 | 0 | 0.0 | 0.0 | 0.00 | 0.00 | 0.00 | 89 | 1002.4 |
| 20260509093903 | 46 | 45 | 0.0 | 0.0 | 0.00 | 0.00 | 0.00 | 89 | 1002.5 |
| 20260509093402 | 46 | 45 | 0.0 | 0.0 | 0.00 | 0.00 | 0.00 | 89 | 1002.4 |
| 20260509092903 | 44 | 68 | 0.0 | 0.0 | 0.00 | 0.00 | 0.00 | 91 | 1002.3 |
| 20260509092402 | 45 | 338 | 0.0 | 0.0 | 0.00 | 0.00 | 0.00 | 93 | 1002.2 |
| 20260509091901 | 45 | 338 | 0.0 | 0.0 | 0.00 | 0.00 | 0.00 | 93 | 1002.3 |
| 20260509091403 | 44 | 338 | 0.0 | 0.0 | 0.00 | 0.00 | 0.00 | 93 | 1002.4 |
| 20260509090901 | 44 | 338 | 0.0 | 0.0 | 0.00 | 0.00 | 0.00 | 93 | 1001.9 |
| 20260509090403 | 44 | 338 | 0.0 | 0.0 | 0.00 | 0.00 | 0.00 | 93 | 1001.8 |
| 20260509085903 | 44 | 338 | 0.0 | 0.0 | 0.00 | 0.00 | 0.00 | 92 | 1002.0 |
| 20260509085403 | 43 | 315 | 0.0 | 0.0 | 0.00 | 0.00 | 0.00 | 92 | 1001.7 |
| 20260509084901 | 43 | 315 | 0.0 | 0.0 | 0.00 | 0.00 | 0.00 | 92 | 1001.3 |
| 20260509084403 | 43 | 270 | 0.0 | 0.0 | 0.00 | 0.00 | 0.00 | 92 | 1001.7 |
| 20260509083401 | 42 | 270 | 0.0 | 0.0 | 0.00 | 0.00 | 0.00 | 91 | 1001.2 |
| 20260509082901 | 42 | 270 | 0.0 | 0.0 | 0.00 | 0.00 | 0.00 | 91 | 1001.1 |
| 20260509081901 | 42 | 203 | 0.0 | 0.0 | 0.00 | 0.00 | 0.00 | 90 | 1000.7 |
| 20260509081402 | 42 | 203 | 0.0 | 0.0 | 0.00 | 0.00 | 0.00 | 91 | 1000.8 |
| 20260509080902 | 42 | 203 | 0.0 | 0.0 | 0.00 | 0.00 | 0.00 | 91 | 1000.6 |
| 20260509080403 | 42 | 203 | 0.0 | 0.0 | 0.00 | 0.00 | 0.00 | 91 | 1000.6 |
| 20260509075401 | 43 | 203 | 0.0 | 0.0 | 0.00 | 0.00 | 0.00 | 90 | 1000.5 |
| 20260509074902 | 43 | 203 | 0.0 | 1.7 | 0.00 | 0.00 | 0.00 | 88 | 1000.2 |
| 20260509074402 | 44 | 203 | 0.0 | 1.7 | 0.00 | 0.00 | 0.00 | 86 | 1000.1 |
| 20260509073902 | 44 | 203 | 0.0 | 3.5 | 0.00 | 0.00 | 0.00 | 83 | 1000.3 |
| 20260509073401 | 44 | 225 | 0.9 | 3.5 | 0.00 | 0.00 | 0.00 | 85 | 1000.2 |
| 20260509072901 | 44 | 180 | 0.9 | 3.5 | 0.00 | 0.00 | 0.00 | 86 | 1000.1 |
| 20260509072401 | 45 | 248 | 0.0 | 1.7 | 0.00 | 0.00 | 0.00 | 84 | 1000.3 |
| 20260509071902 | 45 | 248 | 0.9 | 1.7 | 0.00 | 0.00 | 0.00 | 83 | 1000.5 |
| 20260509071401 | 44 | 248 | 0.0 | 1.7 | 0.00 | 0.00 | 0.00 | 84 | 1000.4 |
| 20260509070401 | 43 | 225 | 0.0 | 1.7 | 0.00 | 0.00 | 0.00 | 89 | 1000.5 |
| 20260509065900 | 43 | 203 | 1.7 | 1.7 | 0.00 | 0.00 | 0.00 | 92 | 1000.4 |
| 20260509065401 | 42 | 315 | 0.0 | 0.0 | 0.00 | 0.00 | 0.00 | 93 | 1000.5 |
| 20260509064903 | 42 | 315 | 0.0 | 0.0 | 0.00 | 0.00 | 0.00 | 93 | 1000.3 |
| 20260509064403 | 43 | 315 | 0.0 | 0.0 | 0.00 | 0.00 | 0.00 | 92 | 1000.5 |
| 20260509063401 | 43 | 315 | 0.0 | 0.0 | 0.00 | 0.00 | 0.00 | 92 | 1000.4 |
| 20260509062901 | 43 | 315 | 0.0 | 0.0 | 0.00 | 0.00 | 0.00 | 92 | 1000.6 |
| 20260509062401 | 43 | 315 | 0.0 | 0.0 | 0.00 | 0.00 | 0.00 | 92 | 1000.5 |
| 20260509060859 | 44 | 315 | 0.0 | 0.0 | 0.00 | 0.00 | 0.00 | 93 | 1000.6 |
| 20260509060357 | 44 | 315 | 0.0 | 0.0 | 0.00 | 0.00 | 0.00 | 93 | 1000.6 |
| 20260509055853 | 44 | 315 | 0.0 | 0.0 | 0.00 | 0.00 | 0.00 | 93 | 1000.7 |
| 20260509054344 | 44 | 315 | 0.0 | 0.0 | 0.00 | 0.00 | 0.00 | 93 | 1000.8 |
| 20260509053841 | 44 | 315 | 0.0 | 0.0 | 0.00 | 0.00 | 0.00 | 93 | 1000.7 |
| 20260509053330 | 44 | 315 | 0.0 | 0.0 | 0.00 | 0.00 | 0.00 | 93 | 1000.7 |
| 20260509052831 | 44 | 315 | 0.0 | 0.0 | 0.00 | 0.00 | 0.00 | 93 | 1000.6 |
| 20260509051831 | 44 | 315 | 0.0 | 0.0 | 0.00 | 0.00 | 0.00 | 92 | 1000.6 |
| 20260509051327 | 45 | 315 | 0.0 | 0.0 | 0.00 | 0.00 | 0.00 | 92 | 1000.3 |
| 20260509050824 | 45 | 315 | 0.0 | 0.0 | 0.00 | 0.00 | 0.00 | 92 | 1000.2 |
| 20260509050323 | 46 | 315 | 0.0 | 0.0 | 0.00 | 0.00 | 0.00 | 92 | 1000.3 |
| 20260509045818 | 45 | 315 | 0.0 | 0.0 | 0.00 | 0.00 | 0.00 | 92 | 1000.4 |
| 20260509045316 | 46 | 315 | 0.0 | 0.0 | 0.00 | 0.00 | 0.00 | 92 | 1000.3 |
| 20260509044814 | 45 | 315 | 0.0 | 1.7 | 0.00 | 0.00 | 0.00 | 92 | 1000.5 |
| 20260509044309 | 45 | 315 | 0.0 | 1.7 | 0.00 | 0.00 | 0.00 | 93 | 1000.1 |
| 20260509043802 | 45 | 315 | 0.9 | 1.7 | 0.00 | 0.00 | 0.00 | 93 | 1000.2 |
| 20260509043304 | 45 | 315 | 0.0 | 0.0 | 0.00 | 0.00 | 0.00 | 93 | 1000.4 |
| 20260509042804 | 45 | 315 | 0.0 | 0.0 | 0.00 | 0.00 | 0.00 | 93 | 1000.3 |
| 20260509042301 | 46 | 315 | 0.0 | 1.7 | 0.00 | 0.00 | 0.00 | 93 | 1000.3 |
| 20260509041301 | 45 | 315 | 0.0 | 1.7 | 0.00 | 0.00 | 0.00 | 93 | 999.7 |
| 20260509040802 | 45 | 315 | 0.0 | 1.7 | 0.00 | 0.00 | 0.00 | 93 | 999.9 |
| 20260509035801 | 44 | 315 | 0.0 | 1.7 | 0.00 | 0.00 | 0.00 | 93 | 999.9 |
| 20260509035301 | 44 | 315 | 0.9 | 1.7 | 0.00 | 0.00 | 0.00 | 93 | 999.9 |
| 20260509034302 | 44 | 315 | 0.0 | 1.7 | 0.00 | 0.00 | 0.00 | 93 | 999.4 |
| 20260509033805 | 44 | 315 | 0.0 | 1.7 | 0.00 | 0.00 | 0.00 | 93 | 999.7 |
| 20260509033301 | 44 | 315 | 0.0 | 1.7 | 0.00 | 0.00 | 0.00 | 93 | 999.5 |
| 20260509032802 | 44 | 315 | 0.0 | 1.7 | 0.00 | 0.00 | 0.00 | 93 | 999.5 |
| 20260509032306 | 44 | 315 | 0.0 | 1.7 | 0.00 | 0.00 | 0.00 | 93 | 999.5 |
| 20260509031801 | 44 | 315 | 0.0 | 1.7 | 0.00 | 0.01 | 0.00 | 93 | 999.3 |
| 20260509031303 | 44 | 315 | 0.0 | 1.7 | 0.00 | 0.01 | 0.00 | 93 | 999.3 |
| 20260509030804 | 44 | 315 | 0.0 | 1.7 | 0.00 | 0.01 | 0.00 | 93 | 999.4 |
| 20260509030303 | 44 | 315 | 0.0 | 1.7 | 0.00 | 0.01 | 0.00 | 94 | 999.4 |
| 20260509025801 | 44 | 315 | 0.0 | 1.7 | 0.00 | 0.01 | 0.01 | 94 | 999.8 |
| 20260509024833 | 44 | 315 | 0.0 | 1.7 | 0.00 | 0.01 | 0.01 | 94 | 999.4 |
| 20260509024303 | 44 | 315 | 0.0 | 1.7 | 0.00 | 0.01 | 0.01 | 94 | 999.5 |
| 20260509023803 | 44 | 315 | 0.0 | 1.7 | 0.00 | 0.01 | 0.01 | 93 | 999.2 |
| 20260509023301 | 44 | 315 | 0.9 | 1.7 | 0.00 | 0.01 | 0.01 | 93 | 999.3 |
| 20260509022801 | 44 | 315 | 0.0 | 1.7 | 0.00 | 0.01 | 0.01 | 93 | 998.9 |
| 20260509022300 | 44 | 315 | 0.0 | 0.0 | 0.00 | 0.01 | 0.01 | 93 | 999.0 |
| 20260509021256 | 44 | 315 | 0.0 | 1.7 | 0.00 | 0.02 | 0.01 | 93 | 998.9 |
| 20260509020249 | 44 | 315 | 0.9 | 1.7 | 0.00 | 0.02 | 0.01 | 93 | 999.0 |
| 20260509015748 | 45 | 315 | 0.0 | 1.7 | 0.00 | 0.02 | 0.01 | 93 | 998.8 |
| 20260509015243 | 45 | 315 | 0.0 | 1.7 | 0.00 | 0.02 | 0.01 | 93 | 998.9 |
| 20260509014741 | 44 | 315 | 0.0 | 0.0 | 0.00 | 0.02 | 0.01 | 93 | 998.8 |
| 20260509013232 | 45 | 315 | 0.9 | 1.7 | 0.00 | 0.04 | 0.01 | 92 | 998.7 |
| 20260509012732 | 46 | 315 | 0.9 | 1.7 | 0.00 | 0.08 | 0.01 | 92 | 998.6 |
| 20260509012230 | 46 | 315 | 0.0 | 0.0 | 0.00 | 0.08 | 0.01 | 92 | 998.3 |
| 20260509011730 | 46 | 315 | 0.0 | 0.0 | 0.00 | 0.09 | 0.01 | 92 | 998.3 |
| 20260509011230 | 46 | 315 | 0.0 | 0.0 | 0.00 | 0.09 | 0.01 | 92 | 998.4 |
| 20260509010729 | 46 | 315 | 0.0 | 0.0 | 0.00 | 0.11 | 0.01 | 92 | 998.4 |
| 20260509010228 | 46 | 315 | 0.0 | 1.7 | 0.00 | 0.14 | 0.01 | 92 | 998.7 |
| 20260509005725 | 46 | 315 | 0.0 | 1.7 | 0.00 | 0.17 | 0.01 | 92 | 998.4 |
| 20260509005223 | 46 | 315 | 0.9 | 1.7 | 0.00 | 0.18 | 0.01 | 92 | 998.4 |
| 20260509004720 | 46 | 315 | 0.9 | 1.7 | 0.00 | 0.19 | 0.01 | 92 | 998.4 |
| 20260509004216 | 46 | 315 | 0.0 | 1.7 | 0.00 | 0.24 | 0.01 | 92 | 998.4 |
| 20260509003713 | 47 | 315 | 0.0 | 1.7 | 0.00 | 0.25 | 0.01 | 93 | 998.5 |
| 20260509002701 | 47 | 315 | 0.0 | 1.7 | 0.00 | 0.25 | 0.01 | 93 | 998.2 |
| 20260509002203 | 47 | 315 | 0.9 | 1.7 | 0.00 | 0.25 | 0.01 | 93 | 998.2 |
| 20260509001701 | 47 | 315 | 0.9 | 1.7 | 0.00 | 0.25 | 0.01 | 92 | 998.1 |
| 20260509001202 | 47 | 315 | 0.0 | 0.0 | 0.00 | 0.25 | 0.01 | 92 | 997.8 |
| 20260509000703 | 47 | 315 | 0.0 | 0.0 | 0.00 | 0.25 | 0.01 | 92 | 997.6 |
| 20260509000204 | 47 | 315 | 0.0 | 1.7 | 0.00 | 0.25 | 0.01 | 92 | 997.6 |
| 20260508235201 | 48 | 315 | 0.9 | 1.7 | 0.00 | 0.25 | 0.01 | 92 | 998.0 |
| 20260508234701 | 48 | 315 | 1.7 | 1.7 | 0.00 | 0.25 | 0.01 | 92 | 997.9 |
| 20260508234201 | 48 | 315 | 0.0 | 1.7 | 0.00 | 0.25 | 0.01 | 92 | 997.5 |
| 20260508233201 | 49 | 315 | 1.7 | 1.7 | 0.00 | 0.25 | 0.01 | 91 | 997.6 |
| 20260508232701 | 49 | 315 | 1.7 | 1.7 | 0.00 | 0.25 | 0.01 | 91 | 997.3 |
| 20260508232202 | 49 | 315 | 0.9 | 1.7 | 0.00 | 0.25 | 0.01 | 90 | 997.3 |
| 20260508231701 | 49 | 315 | 0.0 | 1.7 | 0.00 | 0.25 | 0.01 | 90 | 997.5 |
| 20260508231201 | 49 | 315 | 0.0 | 1.7 | 0.00 | 0.25 | 0.01 | 90 | 997.3 |
| 20260508230701 | 49 | 315 | 0.0 | 1.7 | 0.00 | 0.25 | 0.01 | 90 | 997.5 |
| 20260508230201 | 49 | 315 | 0.0 | 1.7 | 0.00 | 0.25 | 0.01 | 90 | 997.5 |
| 20260508225701 | 49 | 315 | 0.0 | 1.7 | 0.00 | 0.25 | 0.01 | 89 | 997.2 |
| 20260508225201 | 50 | 315 | 0.0 | 1.7 | 0.00 | 0.26 | 0.01 | 88 | 997.5 |
| 20260508224700 | 50 | 315 | 0.0 | 1.7 | 0.00 | 0.28 | 0.01 | 86 | 997.3 |
| 20260508224202 | 50 | 315 | 0.0 | 1.7 | 0.00 | 0.30 | 0.01 | 85 | 997.1 |
| 20260508223705 | 50 | 315 | 0.0 | 1.7 | 0.00 | 0.31 | 0.01 | 85 | 997.2 |
| 20260508223202 | 50 | 315 | 0.9 | 1.7 | 0.00 | 0.32 | 0.01 | 86 | 997.5 |
| 20260508222703 | 51 | 315 | 0.0 | 1.7 | 0.00 | 0.33 | 0.01 | 85 | 997.2 |
| 20260508222201 | 51 | 315 | 0.0 | 1.7 | 0.00 | 0.35 | 0.01 | 84 | 997.2 |
| 20260508221701 | 51 | 315 | 0.9 | 1.7 | 0.00 | 0.37 | 0.01 | 84 | 997.1 |
| 20260508220201 | 52 | 315 | 1.7 | 1.7 | 0.00 | 0.44 | 0.01 | 82 | 996.7 |
| 20260508215201 | 54 | 315 | 0.0 | 1.7 | 0.00 | 0.57 | 0.01 | 74 | 996.6 |
| 20260508214702 | 54 | 315 | 0.0 | 1.7 | 0.00 | 0.60 | 0.01 | 74 | 996.4 |
| 20260508214204 | 54 | 315 | 0.9 | 1.7 | 0.00 | 0.61 | 0.01 | 76 | 996.4 |
| 20260508213702 | 54 | 0 | 0.0 | 1.7 | 0.00 | 0.63 | 0.01 | 75 | 996.2 |
| 20260508213201 | 55 | 0 | 0.9 | 1.7 | 0.00 | 0.78 | 0.01 | 75 | 996.1 |
| 20260508212701 | 55 | 0 | 0.9 | 1.7 | 0.00 | 0.93 | 0.01 | 76 | 996.1 |
| 20260508212203 | 56 | 0 | 0.9 | 1.7 | 0.00 | 1.07 | 0.01 | 73 | 996.1 |
| 20260508211702 | 56 | 0 | 0.9 | 1.7 | 0.00 | 1.10 | 0.01 | 72 | 996.0 |
| 20260508211201 | 56 | 0 | 0.9 | 1.7 | 0.00 | 1.12 | 0.01 | 74 | 995.9 |
| 20260508210202 | 57 | 0 | 0.9 | 1.7 | 0.00 | 1.18 | 0.01 | 68 | 995.9 |
| 20260508205701 | 58 | 270 | 0.0 | 1.7 | 0.00 | 1.18 | 0.01 | 67 | 996.0 |
| 20260508205201 | 59 | 0 | 0.9 | 3.5 | 0.00 | 1.19 | 0.01 | 65 | 995.7 |
| 20260508204703 | 59 | 315 | 1.7 | 3.5 | 0.00 | 1.19 | 0.01 | 63 | 996.0 |
| 20260508204201 | 59 | 270 | 1.7 | 3.5 | 0.00 | 1.35 | 0.01 | 66 | 996.1 |
| 20260508203202 | 60 | 23 | 0.9 | 3.5 | 0.00 | 1.38 | 0.01 | 65 | 995.9 |
| 20260508202701 | 61 | 0 | 0.9 | 1.7 | 0.00 | 1.38 | 0.01 | 64 | 995.9 |
| 20260508202202 | 61 | 0 | 1.7 | 3.5 | 0.00 | 1.38 | 0.01 | 63 | 995.6 |
| 20260508201703 | 61 | 338 | 1.7 | 3.5 | 0.00 | 1.38 | 0.01 | 61 | 995.5 |
| 20260508201203 | 61 | 293 | 0.9 | 5.2 | 0.00 | 1.38 | 0.01 | 59 | 995.4 |
| 20260508200701 | 61 | 338 | 1.7 | 6.1 | 0.00 | 1.38 | 0.01 | 57 | 995.5 |
| 20260508200201 | 61 | 293 | 1.7 | 6.1 | 0.00 | 1.39 | 0.01 | 59 | 995.3 |
| 20260508195702 | 62 | 293 | 1.7 | 5.2 | 0.00 | 1.39 | 0.01 | 57 | 995.4 |
| 20260508195201 | 62 | 315 | 0.9 | 5.2 | 0.00 | 1.39 | 0.01 | 56 | 995.3 |
| 20260508194702 | 63 | 315 | 2.6 | 5.2 | 0.00 | 1.39 | 0.01 | 56 | 995.5 |
| 20260508194203 | 63 | 293 | 1.7 | 6.1 | 0.00 | 1.39 | 0.01 | 56 | 995.1 |
| 20260508193701 | 63 | 338 | 1.7 | 7.0 | 0.00 | 1.39 | 0.01 | 51 | 995.6 |
| 20260508193202 | 63 | 293 | 1.7 | 7.8 | 0.00 | 1.39 | 0.01 | 52 | 995.3 |
| 20260508192201 | 65 | 270 | 2.6 | 9.6 | 0.00 | 1.39 | 0.01 | 48 | 995.3 |
| 20260508191704 | 65 | 315 | 2.6 | 11.3 | 0.00 | 1.39 | 0.01 | 47 | 995.5 |
| 20260508191201 | 64 | 293 | 2.6 | 11.3 | 0.00 | 1.39 | 0.01 | 46 | 995.9 |
| 20260508190701 | 65 | 293 | 5.2 | 7.8 | 0.00 | 1.39 | 0.01 | 45 | 995.8 |
| 20260508185202 | 65 | 315 | 3.5 | 12.2 | 0.00 | 1.39 | 0.01 | 46 | 996.0 |
| 20260508184701 | 65 | 315 | 3.5 | 12.2 | 0.00 | 1.39 | 0.01 | 45 | 995.9 |
| 20260508184200 | 65 | 315 | 7.0 | 12.2 | 0.00 | 1.39 | 0.01 | 44 | 995.9 |
| 20260508183703 | 65 | 248 | 4.3 | 9.6 | 0.00 | 1.39 | 0.01 | 44 | 995.6 |
| 20260508183202 | 65 | 293 | 3.5 | 9.6 | 0.00 | 1.39 | 0.01 | 47 | 995.9 |
| 20260508182701 | 65 | 270 | 3.5 | 9.6 | 0.00 | 1.39 | 0.01 | 48 | 995.7 |
| 20260508182201 | 65 | 293 | 3.5 | 11.3 | 0.00 | 1.39 | 0.01 | 50 | 995.8 |
| 20260508181203 | 65 | 293 | 3.5 | 9.6 | 0.00 | 1.39 | 0.01 | 48 | 995.8 |
| 20260508180702 | 66 | 248 | 1.7 | 9.6 | 0.00 | 1.39 | 0.01 | 51 | 995.9 |
| 20260508175702 | 65 | 23 | 1.7 | 13.0 | 0.00 | 1.39 | 0.01 | 54 | 996.0 |
| 20260508174701 | 65 | 338 | 3.5 | 13.0 | 0.00 | 1.39 | 0.01 | 51 | 996.0 |
| 20260508174207 | 65 | 315 | 1.7 | 13.0 | 0.00 | 1.39 | 0.01 | 49 | 996.3 |
| 20260508173702 | 65 | 338 | 2.6 | 11.3 | 0.00 | 1.39 | 0.01 | 50 | 996.1 |
| 20260508173200 | 65 | 338 | 3.5 | 11.3 | 0.00 | 1.39 | 0.01 | 51 | 996.2 |
| 20260508172655 | 65 | 270 | 6.1 | 11.3 | 0.00 | 1.39 | 0.01 | 53 | 996.1 |
| 20260508172152 | 65 | 225 | 3.5 | 9.6 | 0.00 | 1.39 | 0.01 | 51 | 996.2 |
| 20260508171650 | 65 | 315 | 2.6 | 11.3 | 0.00 | 1.39 | 0.01 | 49 | 996.3 |
| 20260508170643 | 65 | 203 | 3.5 | 11.3 | 0.00 | 1.39 | 0.01 | 52 | 996.2 |
| 20260508170141 | 65 | 248 | 2.6 | 12.2 | 0.00 | 1.39 | 0.01 | 51 | 996.4 |
| 20260508165639 | 65 | 293 | 3.5 | 12.2 | 0.00 | 1.39 | 0.01 | 54 | 996.3 |
| 20260508165135 | 65 | 293 | 3.5 | 9.6 | 0.00 | 1.39 | 0.01 | 53 | 996.6 |
| 20260508164630 | 65 | 270 | 4.3 | 9.6 | 0.00 | 1.39 | 0.01 | 53 | 996.3 |
| 20260508163632 | 64 | 0 | 4.3 | 11.3 | 0.00 | 1.39 | 0.01 | 52 | 996.7 |
| 20260508163131 | 65 | 270 | 1.7 | 9.6 | 0.00 | 1.39 | 0.01 | 56 | 996.6 |
| 20260508162629 | 64 | 293 | 6.1 | 9.6 | 0.00 | 1.39 | 0.01 | 50 | 996.8 |
| 20260508162129 | 64 | 248 | 3.5 | 7.0 | 0.00 | 1.39 | 0.01 | 52 | 996.8 |
| 20260508161630 | 64 | 248 | 1.7 | 7.0 | 0.00 | 1.39 | 0.01 | 52 | 996.7 |
| 20260508161134 | 64 | 270 | 1.7 | 9.6 | 0.00 | 1.39 | 0.01 | 53 | 996.8 |
| 20260508160631 | 63 | 315 | 5.2 | 9.6 | 0.00 | 1.39 | 0.01 | 50 | 996.9 |
| 20260508160129 | 63 | 270 | 2.6 | 9.6 | 0.00 | 1.39 | 0.01 | 49 | 997.1 |
| 20260508155631 | 63 | 293 | 5.2 | 9.6 | 0.00 | 1.39 | 0.01 | 50 | 997.3 |
| 20260508155130 | 64 | 293 | 3.5 | 9.6 | 0.00 | 1.39 | 0.01 | 53 | 997.3 |
| 20260508154630 | 64 | 338 | 3.5 | 9.6 | 0.00 | 1.39 | 0.01 | 55 | 997.3 |
| 20260508154129 | 64 | 23 | 2.6 | 6.1 | 0.00 | 1.39 | 0.01 | 52 | 997.5 |
| 20260508153631 | 63 | 293 | 3.5 | 7.8 | 0.00 | 1.39 | 0.01 | 52 | 997.5 |
| 20260508153130 | 63 | 45 | 2.6 | 7.8 | 0.00 | 1.39 | 0.01 | 55 | 997.7 |
| 20260508152630 | 63 | 45 | 3.5 | 7.0 | 0.00 | 1.39 | 0.01 | 53 | 997.8 |
| 20260508152131 | 63 | 338 | 3.5 | 7.0 | 0.00 | 1.39 | 0.01 | 53 | 997.7 |
| 20260508151629 | 63 | 270 | 1.7 | 7.0 | 0.00 | 1.39 | 0.01 | 57 | 997.5 |
| 20260508151130 | 63 | 338 | 1.7 | 7.0 | 0.00 | 1.39 | 0.01 | 53 | 997.7 |
| 20260508150631 | 62 | 315 | 4.3 | 9.6 | 0.00 | 1.39 | 0.01 | 57 | 997.9 |
| 20260508150132 | 62 | 270 | 3.5 | 9.6 | 0.00 | 1.39 | 0.01 | 53 | 998.0 |
| 20260508145631 | 62 | 293 | 3.5 | 7.8 | 0.00 | 1.39 | 0.01 | 59 | 998.2 |
| 20260508145131 | 62 | 338 | 3.5 | 7.0 | 0.00 | 1.39 | 0.01 | 63 | 998.1 |
| 20260508144630 | 61 | 248 | 1.7 | 7.0 | 0.00 | 1.39 | 0.01 | 62 | 997.9 |
| 20260508144130 | 62 | 338 | 3.5 | 7.0 | 0.00 | 1.39 | 0.01 | 70 | 998.3 |
| 20260508143631 | 61 | 315 | 3.5 | 7.0 | 0.00 | 1.39 | 0.01 | 65 | 998.3 |
| 20260508143129 | 61 | 293 | 3.5 | 6.1 | 0.00 | 1.39 | 0.01 | 67 | 998.1 |
| 20260508142130 | 60 | 315 | 3.5 | 7.8 | 0.00 | 1.39 | 0.01 | 68 | 998.1 |
| 20260508141631 | 60 | 270 | 3.5 | 7.8 | 0.00 | 1.39 | 0.01 | 71 | 998.2 |
| 20260508141132 | 60 | 315 | 3.5 | 7.0 | 0.00 | 1.39 | 0.01 | 69 | 998.4 |
| 20260508140629 | 60 | 315 | 1.7 | 7.0 | 0.00 | 1.39 | 0.01 | 74 | 998.5 |
| 20260508140130 | 60 | 293 | 4.3 | 7.0 | 0.00 | 1.39 | 0.01 | 74 | 998.1 |
| 20260508135630 | 60 | 0 | 2.6 | 7.0 | 0.00 | 1.39 | 0.01 | 76 | 998.5 |